This is the latest recevied weather packets stored in our database for station/object K3RUP-1. If no packets are shown the sender has not sent any weather packets the latest 10 day(s).
| Time | Temp. | Humidity | Pressure | Rain* | Wind** | Luminosity | Snow |
|---|---|---|---|---|---|---|---|
| 1788705001 | 23.33° C | 77% | 1014.5 hPa | 0 mm | - | 131 W/m² | - |
| 1788704695 | 23.33° C | 77% | 1014.9 hPa | 0 mm | - | 136 W/m² | - |
| 1788704390 | 22.78° C | 77% | 1014.8 hPa | 0 mm | - | 65 W/m² | - |
| 1788704089 | 22.78° C | 77% | 1014.7 hPa | 0 mm | - | 52 W/m² | - |
| 1788703785 | 22.78° C | 78% | 1014.7 hPa | 0 mm | - | 36 W/m² | - |
| 1788703479 | 22.78° C | 77% | 1014.5 hPa | 0 mm | - | 34 W/m² | - |
| 1788703177 | 22.78° C | 78% | 1014.6 hPa | 0 mm | - | 33 W/m² | - |
| 1788702876 | 22.78° C | 78% | 1014.5 hPa | 0 mm | - | 109 W/m² | - |
| 1788702572 | 22.78° C | 79% | 1014.6 hPa | 0 mm | - | 54 W/m² | - |
| 1788702267 | 22.22° C | 79% | 1014.4 hPa | 0 mm | - | 34 W/m² | - |
| 1788701962 | 22.22° C | 78% | 1014.7 hPa | 0 mm | - | 32 W/m² | - |
| 1788701658 | 22.78° C | 79% | 1014.5 hPa | 0 mm | - | 31 W/m² | - |
| 1788701353 | 22.78° C | 77% | 1014.6 hPa | 0 mm | - | 31 W/m² | - |
| 1788701049 | 22.78° C | 77% | 1014.6 hPa | 0 mm | - | 95 W/m² | - |
| 1788700744 | 22.78° C | 77% | 1014.5 hPa | 0 mm | - | 91 W/m² | - |
| 1788700439 | 22.78° C | 77% | 1014.4 hPa | 0 mm | - | 247 W/m² | - |
| 1788700135 | 22.78° C | 76% | 1014.5 hPa | 0 mm | - | 236 W/m² | - |
| 1788699834 | 21.67° C | 78% | 1014.5 hPa | 0 mm | - | 213 W/m² | - |
| 1788699534 | 21.67° C | 80% | 1014.4 hPa | 0 mm | - | 148 W/m² | - |
| 1788699230 | 21.67° C | 82% | 1014.3 hPa | 0 mm | - | 27 W/m² | - |
| 1788698926 | 21.11° C | 82% | 1014.1 hPa | 0 mm | - | 61 W/m² | - |
| 1788698622 | 20.56° C | 84% | 1014.3 hPa | 0 mm | - | 40 W/m² | - |
| 1788698321 | 20.56° C | 84% | 1014.4 hPa | 0 mm | - | 26 W/m² | - |
| 1788698016 | 20.56° C | 84% | 1014.4 hPa | 0 mm | - | 26 W/m² | - |
| 1788697715 | 20.56° C | 85% | 1014.4 hPa | 0 mm | - | 26 W/m² | - |
* Rain latest hour (hover to see other rain measurements)
** Current wind speed in m/s (hover to see current wind gust speed)